Weather History for Aberdeen / Amory, MS

Change the Weather History Date:

Friday, May 10, 2013

  Actual Average (KCBM) Record (KCBM)
Temperature  
Mean Temperature 71 °F -  
Max Temperature 80 °F 79 °F 90 °F (2007)
Min Temperature 62 °F 58 °F 48 °F (1997)
Cooling Degree Days 6    
Growing Degree Days 21 (Base 50)    
Moisture  
Dew Point 54 °F    
Average Humidity 56    
Maximum Humidity 61    
Minimum Humidity 52    
Precipitation  
Precipitation 0.10 in - - ()
Sea Level Pressure  
Sea Level Pressure 29.99 in    
Wind  
Wind Speed 7 mph (NW)    
Max Wind Speed 17 mph    
Max Gust Speed 22 mph    
Visibility 8 miles    
Events Rain    
Averages and records for this station are not official NWS values.
T = Trace of Precipitation, MM = Missing Value Source: NWS Daily Summary

Daily Weather History Graph

Daily Weather History Graph

Search for Another Location

Airport:

Trip Planner

Search our weather history database for the weather conditions in past years. The results will help you decide how hot, cold, wet, or windy it might be!

Date:

Astronomy

May. 10, 2013 Rise Set
Actual Time 5:56 AM CDT 7:44 PM CDT
Civil Twilight 5:29 AM CDT 8:12 PM CDT
Nautical Twilight 4:56 AM CDT 8:45 PM CDT
Astronomical Twilight 4:21 AM CDT 9:20 PM CDT
Moon 6:20 AM CDT (5/10) 8:32 PM CDT (5/10)
Length of Visible Light 14h 42m
Length of Day
13h 48m
New Moon, 0% of the Moon is Illuminated
May 10
New Moon
May 17
First Quarter
May 24
Full
May 31
Last Quarter
Jun 8
New

Hourly Weather History & Observations

Time (CDT) Temp. Heat Index Dew Point Humidity Pressure Visibility Wind Dir Wind Speed Gust Speed Precip Events Conditions
12:15 AM 69.8 °F - 53.6 °F 56% 30.02 in 10.0 mi North - - N/A   Partly Cloudy
12:55 AM 71.6 °F - 53.6 °F 53% 30.02 in 10.0 mi NW 6.9 mph - N/A   Clear
1:15 AM 71.6 °F - 53.6 °F 53% 30.00 in 10.0 mi NW 5.8 mph - N/A   Clear
1:35 AM 69.8 °F - 53.6 °F 56% 30.00 in 10.0 mi NW 5.8 mph - N/A   Clear
1:55 AM 69.8 °F - 53.6 °F 56% 29.99 in 10.0 mi North - - N/A   Clear
2:15 AM 69.8 °F - 53.6 °F 56% 29.97 in 10.0 mi North - - N/A   Clear
2:35 AM 69.8 °F - 53.6 °F 56% 29.97 in 10.0 mi NW 5.8 mph - N/A   Scattered Clouds
2:55 AM 69.8 °F - 53.6 °F 56% 29.99 in 8.0 mi NW 5.8 mph - N/A Rain Light Rain
3:15 AM 68.0 °F - 51.8 °F 56% 30.00 in 5.0 mi North - - N/A Rain Light Rain
3:35 AM 66.2 °F - 51.8 °F 60% 30.01 in 2.5 mi North - - 0.02 in Rain Rain
3:55 AM 66.2 °F - 50.0 °F 56% 30.02 in 2.5 mi WNW 10.4 mph - 0.07 in Rain Light Rain
4:15 AM 66.2 °F - 50.0 °F 56% 30.01 in 2.5 mi NW 6.9 mph - 0.01 in Rain Rain
4:35 AM 66.2 °F - 50.0 °F 56% 30.01 in 7.0 mi NW 9.2 mph - 0.02 in   Light Drizzle
4:55 AM 66.2 °F - 48.2 °F 52% 30.01 in 6.0 mi NW 10.4 mph - 0.02 in Rain Light Rain
5:15 AM 64.4 °F - 48.2 °F 56% 30.01 in 6.0 mi NW 8.1 mph - N/A   Light Drizzle
5:35 AM 64.4 °F - 48.2 °F 56% 30.00 in 4.0 mi North - - N/A Rain Light Rain
5:55 AM 64.4 °F - 46.4 °F 52% 30.01 in 4.0 mi North - - 0.01 in Rain Light Rain
6:15 AM 62.6 °F - 46.4 °F 55% 30.00 in 7.0 mi NW 12.7 mph 17.3 mph N/A   Mostly Cloudy
6:35 AM 62.6 °F - 46.4 °F 55% 30.01 in 7.0 mi NW 11.5 mph 16.1 mph N/A   Scattered Clouds
7:15 AM 62.6 °F - 46.4 °F 55% 30.01 in 8.0 mi NW 8.1 mph - N/A   Partly Cloudy
7:35 AM 62.6 °F - 46.4 °F 55% 30.01 in 7.0 mi NNW 8.1 mph - N/A   Clear
8:15 AM 62.6 °F - 46.4 °F 55% 30.03 in 8.0 mi NNW 8.1 mph - N/A   Scattered Clouds
8:35 AM 62.6 °F - 46.4 °F 55% 30.04 in 6.0 mi NW 6.9 mph - N/A   Haze
8:55 AM 62.6 °F - 46.4 °F 55% 30.05 in 8.0 mi NW 8.1 mph - N/A   Mostly Cloudy
9:15 AM 62.6 °F - 46.4 °F 55% 30.06 in 8.0 mi NW 6.9 mph - N/A   Mostly Cloudy
9:35 AM 64.4 °F - 46.4 °F 52% 30.06 in 9.0 mi NW 6.9 mph - N/A   Mostly Cloudy
9:55 AM 64.4 °F - 46.4 °F 52% 30.05 in 4.0 mi NW 9.2 mph - N/A   Haze
10:15 AM 64.4 °F - 46.4 °F 52% 30.05 in 8.0 mi NW 6.9 mph - N/A   Partly Cloudy
10:35 AM 64.4 °F - 48.2 °F 56% 30.04 in 7.0 mi NW 6.9 mph - N/A   Partly Cloudy
10:55 AM 66.2 °F - 50.0 °F 56% 30.06 in 9.0 mi NW 8.1 mph - N/A   Partly Cloudy
11:15 AM 68.0 °F - 51.8 °F 56% 30.05 in 9.0 mi NW 10.4 mph - N/A   Scattered Clouds
11:35 AM 69.8 °F - 51.8 °F 53% 30.05 in 9.0 mi WNW 10.4 mph - N/A   Scattered Clouds
12:15 PM 73.4 °F - 55.4 °F 53% 30.02 in 8.0 mi WNW 10.4 mph 16.1 mph N/A   Unknown
12:35 PM 73.4 °F - 59.0 °F 61% 30.01 in 9.0 mi WNW 11.5 mph - N/A   Partly Cloudy
12:55 PM 75.2 °F - 59.0 °F 57% 30.00 in 9.0 mi WNW 10.4 mph - N/A   Scattered Clouds
1:15 PM 77.0 °F - 60.8 °F 57% 29.98 in 10.0 mi West 15.0 mph 18.4 mph N/A   Scattered Clouds
1:35 PM 77.0 °F - 60.8 °F 57% 29.98 in 9.0 mi WNW 15.0 mph 20.7 mph N/A   Scattered Clouds
1:55 PM 78.8 °F - 62.6 °F 57% 29.97 in 10.0 mi WNW 17.3 mph 21.9 mph N/A   Partly Cloudy
2:15 PM 78.8 °F - 62.6 °F 57% 29.97 in 9.0 mi WNW 15.0 mph - N/A   Partly Cloudy
2:35 PM 78.8 °F - 62.6 °F 57% 29.97 in 10.0 mi WNW 16.1 mph 20.7 mph N/A   Partly Cloudy
2:55 PM 78.8 °F - 60.8 °F 54% 29.97 in 10.0 mi WNW 13.8 mph - N/A   Mostly Cloudy
3:15 PM 78.8 °F - 60.8 °F 54% 29.95 in 10.0 mi NW 9.2 mph - N/A   Mostly Cloudy
3:35 PM 80.6 °F 81.8 °F 62.6 °F 54% 29.95 in 10.0 mi NW 8.1 mph 17.3 mph N/A   Mostly Cloudy
3:55 PM 78.8 °F - 62.6 °F 57% 29.94 in 10.0 mi NW 10.4 mph 16.1 mph N/A   Mostly Cloudy
4:15 PM 80.6 °F 81.8 °F 62.6 °F 54% 29.93 in 9.0 mi NW 5.8 mph - N/A   Scattered Clouds
4:35 PM 80.6 °F 81.8 °F 62.6 °F 54% 29.92 in 10.0 mi NW 9.2 mph - N/A   Partly Cloudy
5:35 PM 77.0 °F - 60.8 °F 57% 29.91 in 10.0 mi NW 6.9 mph - N/A   Mostly Cloudy
5:55 PM 77.0 °F - 59.0 °F 54% 29.91 in 10.0 mi North - - N/A   Partly Cloudy
6:15 PM 75.2 °F - 59.0 °F 57% 29.91 in 10.0 mi North - - N/A   Scattered Clouds
6:35 PM 75.2 °F - 57.2 °F 53% 29.91 in 10.0 mi North - - N/A   Mostly Cloudy
6:55 PM 73.4 °F - 57.2 °F 57% 29.92 in 9.0 mi Calm Calm - N/A   Mostly Cloudy
7:15 PM 73.4 °F - 57.2 °F 57% 29.93 in 10.0 mi Calm Calm - N/A   Mostly Cloudy
7:35 PM 73.4 °F - 57.2 °F 57% 29.94 in 10.0 mi North - - N/A   Mostly Cloudy
7:55 PM 73.4 °F - 55.4 °F 53% 29.94 in 10.0 mi North - - N/A   Mostly Cloudy
8:15 PM 71.6 °F - 55.4 °F 57% 29.94 in 10.0 mi North - - N/A   Partly Cloudy
8:35 PM 69.8 °F - 53.6 °F 56% 29.95 in 10.0 mi Calm Calm - N/A   Partly Cloudy
8:55 PM 68.0 °F - 51.8 °F 56% 29.97 in 10.0 mi Calm Calm - N/A   Mostly Cloudy
9:15 PM 68.0 °F - 53.6 °F 60% 29.97 in 10.0 mi Calm Calm - N/A   Mostly Cloudy
9:35 PM 68.0 °F - 53.6 °F 60% 29.98 in 10.0 mi Calm Calm - N/A   Partly Cloudy
9:55 PM 66.2 °F - 51.8 °F 60% 29.99 in 10.0 mi Calm Calm - N/A   Mostly Cloudy
10:15 PM 68.0 °F - 51.8 °F 56% 29.99 in 10.0 mi Calm Calm - N/A   Overcast
10:35 PM 68.0 °F - 51.8 °F 56% 30.00 in 9.0 mi Calm Calm - N/A   Mostly Cloudy
10:55 PM 69.8 °F - 51.8 °F 53% 30.00 in 9.0 mi Calm Calm - N/A Rain Light Rain
11:15 PM 68.0 °F - 51.8 °F 56% 29.98 in 8.0 mi Calm Calm - N/A   Mostly Cloudy
11:35 PM 68.0 °F - 51.8 °F 56% 29.98 in 8.0 mi North - - N/A   Partly Cloudy
11:55 PM 68.0 °F - 51.8 °F 56% 29.98 in 10.0 mi Calm Calm - N/A   Clear